Content
SEND FEEDBACK

Daily
Averages
Monthly
Summary
United States of America

PLATTSMOUTH, NEBRASKA


Home > North America > United States > Nebraska
Elevation: 990 feet     Latitude: 41 01N     Longitude: 095 53W

WEATHER
 
SELECT A DAY
Number of Records: 197,197;   Date Range: 11/2/06 - 9/30/14
 
SHARE

PRINT THIS DATA

[ ← Previous Day ]
WEATHER ALMANAC - FEBRUARY 13, 2013
[ Next Day → ]
[ °C ]   °F
Weather ElementAverageHighLow
Temperature39.1 °F53.8 °F (2:55 pm)26.2 °F (7:35 am)
Dewpoint26.1 °F30.2 °F (11:15 am)21.4 °F (12:55 am)
Humidity62.2 %86 % (7:35 am)33 % (3:35 pm)
Barometer29.81 in29.91 in (12:35 am)29.73 in (4:15 pm)
Wind Speed7.7 mph13.8 mph (2:35 pm)
Wind Gust23 mph (2:55 pm)
Weather ElementAverage
Visibility10 mi
Wind DirectionWSW (245.6 °)

Weather ElementTotal
Precipitation---
Heating Degree Days25 (Base 65)
Averaged from 71 records on February 13, 2013
WEATHER CONDITIONS BREAKOUT
WIND DIRECTION BREAKOUT
WEATHER BY HOUR - FEBRUARY 13, 2013
[ °C ]   °F
Local TimeTemperatureDewpointHumidityBarometerVisibilityWind DirectionWind SpeedGust SpeedPrecipitationEventsConditions
12:35 AM30.9 °F21.7 °F69 %29.91 in10.0 miWest (260°)5.8 mphClear
12:55 AM30.0 °F21.4 °F70 %29.90 in10.0 miWSW (250°)6.9 mphClear
1:15 AM29.3 °F21.7 °F73 %29.90 in10.0 miWest (270°)5.8 mphClear
1:35 AM30.7 °F22.1 °F70 %29.90 in10.0 miWest (260°)5.8 mphClear
1:55 AM29.8 °F22.1 °F73 %29.89 in10.0 miWest (260°)5.8 mphClear
2:15 AM30.0 °F22.1 °F72 %29.89 in10.0 miWSW (250°)5.8 mphClear
2:35 AM30.2 °F22.1 °F72 %29.89 in10.0 miWest (260°)5.8 mphClear
2:55 AM29.7 °F21.7 °F72 %29.89 in10.0 miWSW (240°)5.8 mphClear
3:15 AM28.9 °F21.9 °F75 %29.88 in10.0 miWSW (250°)6.9 mphClear
3:35 AM28.6 °F21.9 °F76 %29.88 in10.0 miWest (260°)5.8 mphClear
3:55 AM28.4 °F22.5 °F78 %29.87 in10.0 miWest (260°)6.9 mphClear
4:15 AM28.4 °F22.8 °F80 %29.87 in10.0 miWest (270°)6.9 mphClear
4:35 AM28.4 °F22.5 °F78 %29.86 in10.0 miWest (270°)8.1 mphClear
4:55 AM28.2 °F22.5 °F79 %29.86 in10.0 miWest (260°)5.8 mphClear
5:15 AM27.5 °F22.6 °F82 %29.85 in10.0 miWSW (250°)6.9 mphClear
5:35 AM28.2 °F23.0 °F81 %29.85 in10.0 miWSW (250°)6.9 mphClear
5:55 AM27.5 °F22.8 °F83 %29.86 in10.0 miWest (260°)6.9 mphClear
6:15 AM27.0 °F22.6 °F84 %29.85 in10.0 miWest (270°)5.8 mphClear
6:35 AM27.0 °F22.5 °F83 %29.85 in10.0 miWest (260°)4.6 mphClear
6:55 AM26.6 °F22.3 °F84 %29.85 in10.0 miWest (270°)6.9 mphClear
7:15 AM26.4 °F22.1 °F84 %29.85 in10.0 miWest (270°)5.8 mphClear
7:35 AM26.2 °F22.5 °F86 %29.86 in10.0 miWest (280°)3.5 mphClear
7:55 AM28.2 °F24.1 °F84 %29.86 in10.0 miWest (280°)5.8 mphClear
8:15 AM28.6 °F24.4 °F84 %29.86 in10.0 miWest (270°)5.8 mphClear
8:35 AM30.2 °F25.9 °F84 %29.86 in10.0 miWest (260°)4.6 mphClear
8:55 AM32.0 °F27.0 °F82 %29.86 in10.0 miWest (260°)4.6 mphClear
9:15 AM32.0 °F27.3 °F83 %29.86 in10.0 miWSW (250°)4.6 mphClear
9:35 AM34.9 °F28.6 °F78 %29.86 in10.0 miWest (270°)5.8 mphClear
9:55 AM35.6 °F28.4 °F75 %29.86 in10.0 miWest (270°)4.6 mphClear
10:15 AM36.5 °F29.1 °F75 %29.86 in10.0 miCalmClear
10:35 AM39.9 °F29.8 °F67 %29.85 in10.0 miWSW (240°)5.8 mphClear
10:55 AM41.4 °F29.5 °F63 %29.85 in10.0 miSW (230°)6.9 mphClear
11:15 AM43.7 °F30.2 °F59 %29.84 in10.0 miWSW (240°)8.1 mphClear
11:35 AM44.6 °F29.8 °F56 %29.84 in10.0 miSW (220°)8.1 mphClear
11:55 AM45.7 °F28.9 °F52 %29.84 in10.0 miSW (220°)9.2 mphClear
12:15 PM47.7 °F28.4 °F47 %29.82 in10.0 miSSW (210°)6.9 mphClear
12:35 PM48.7 °F29.1 °F47 %29.81 in10.0 miSW (230°)8.1 mphClear
12:55 PM50.9 °F28.8 °F43 %29.80 in10.0 miSW (220°)9.2 mphClear
1:15 PM50.9 °F29.1 °F43 %29.79 in10.0 miSSW (210°)11.5 mphClear
1:35 PM51.4 °F28.4 °F41 %29.78 in10.0 miWSW (240°)12.7 mphClear
1:55 PM52.5 °F28.6 °F40 %29.77 in10.0 miSW (230°)11.5 mph17.3 mphClear
2:15 PM52.9 °F27.1 °F37 %29.77 in10.0 miWSW (240°)12.7 mph17.3 mphClear
2:35 PM53.6 °F26.4 °F35 %29.76 in10.0 miWSW (240°)13.8 mph18.4 mphClear
2:55 PM53.8 °F26.4 °F35 %29.76 in10.0 miWSW (250°)11.5 mph23.0 mphClear
3:15 PM53.8 °F25.9 °F34 %29.75 in10.0 miWSW (240°)12.7 mph18.4 mphClear
3:35 PM53.8 °F25.3 °F33 %29.75 in10.0 miWSW (250°)13.8 mph19.6 mphClear
3:55 PM53.6 °F25.7 °F34 %29.74 in10.0 miWSW (240°)12.7 mphClear
4:15 PM52.7 °F25.7 °F35 %29.73 in10.0 miSW (230°)13.8 mphClear
4:35 PM52.2 °F26.1 °F36 %29.74 in10.0 miWSW (240°)11.5 mphClear
4:55 PM51.3 °F26.6 °F38 %29.74 in10.0 miWSW (250°)9.2 mphClear
5:15 PM50.2 °F28.0 °F42 %29.74 in10.0 miWSW (240°)8.1 mphClear
5:35 PM49.5 °F27.3 °F42 %29.74 in10.0 miWSW (240°)8.1 mphClear
5:55 PM46.6 °F27.5 °F47 %29.74 in10.0 miWSW (240°)6.9 mphClear
6:15 PM44.8 °F27.7 °F51 %29.74 in10.0 miSW (220°)5.8 mphMostly Cloudy
6:35 PM44.4 °F27.9 °F52 %29.73 in10.0 miSW (220°)6.9 mphMostly Cloudy
6:55 PM44.2 °F27.5 °F52 %29.73 in10.0 miSW (220°)6.9 mphScattered Clouds
7:15 PM44.1 °F27.5 °F52 %29.74 in10.0 miSW (220°)9.2 mphClear
7:35 PM43.3 °F27.5 °F54 %29.74 in10.0 miSW (220°)6.9 mphScattered Clouds
7:55 PM42.8 °F27.1 °F54 %29.75 in10.0 miWSW (240°)6.9 mphScattered Clouds
8:15 PM42.4 °F27.1 °F55 %29.75 in10.0 miWSW (250°)8.1 mphClear
8:35 PM42.1 °F28.2 °F58 %29.75 in10.0 miWSW (250°)9.2 mphMostly Cloudy
8:55 PM41.9 °F28.2 °F58 %29.74 in10.0 miWSW (250°)8.1 mphMostly Cloudy
9:15 PM41.0 °F27.9 °F60 %29.75 in10.0 miWSW (250°)8.1 mphScattered Clouds
9:35 PM40.1 °F28.0 °F62 %29.75 in10.0 miWSW (250°)6.9 mphClear
9:55 PM39.6 °F28.4 °F64 %29.75 in10.0 miWSW (250°)6.9 mphScattered Clouds
10:15 PM39.2 °F28.4 °F65 %29.76 in10.0 miWest (260°)9.2 mphScattered Clouds
10:35 PM40.1 °F28.9 °F64 %29.76 in10.0 miWest (270°)10.4 mphClear
10:55 PM40.1 °F29.3 °F65 %29.77 in10.0 miWest (280°)9.2 mphMostly Cloudy
11:15 PM40.8 °F29.8 °F65 %29.77 in10.0 miWest (280°)8.1 mphOvercast
11:35 PM41.4 °F30.0 °F64 %29.77 in10.0 miWest (270°)8.1 mphOvercast
11:55 PM39.2 °F29.3 °F68 %29.78 in10.0 miWest (260°)9.2 mphScattered Clouds
Hourly data recorded from KPMV, located miles away from Plattsmouth, Nebraska







STORIES FROM OUR PARTNERS